Location: Lecco
(45.8566°N, 9.3977°E)
Time: 11:46:01
(UTC+02:00)

S-56A Canister/Altair - Pass Details

Date: 27 July 2019
Orbit: 633 x 2499 km, 38.9° (Epoch: 23 August)

Event Time Altitude Azimuth Distance (km) Brightness Sun altitude
Rises 04:31:44 0° 194° (SSW) 4,095 - -12.8°
Exits shadow 04:33:39 - 186° (S) 3,674 10.5 -12.6°
Reaches altitude 10° 04:35:04 10° 178° (S) 3,419 10.4 -12.4°
Maximum altitude 04:41:21 21° 133° (SE) 3,122 10.7 -11.6°
Drops below altitude 10° 04:49:22 10° 90° (E) 4,505 12.2 -10.6°
Sets 04:54:36 0° 78° (ENE) 5,797 13.2 -10.0°
